Temperature
16 16 16 16 16 16 15 15 15 15 15 16 16 16 16 16 16 16 16 16 16 16 16 16 15 15 15 15 15 15 14 14 14 14 14 14 14 14
15 15 15 15 15 15 15 15 15 15 15 15 15 15 15 15 15 15 15 15 15 15 15 15 15 15 15 14 14 14 14 14 14 14 14 14 14 14
15 15 15 15 15 15 15 15 15 15 15 15 15 15 15 15 15 15 15 15 15 15 15 15 15 14 14 14 14 14 14 14 14 14 14 14 13 13
14 14 14 15 14 14 14 14 14 14 14 14 14 14 14 14 14 14 14 14 14 14 14 14 14 14 14 14 14 14 14 13 13 13 13 13 13 13
14 14 14 14 14 14 14 14 14 14 14 14 14 14 14 14 14 14 14 14 14 14 14 14 14 14 14 13 13 13 13 13 13 13 13 13 13 13
13 14 14 14 14 14 14 14 14 14 14 14 14 14 14 14 14 14 13 13 13 13 13 13 13 13 13 13 13 13 13 13 13 13 13 12 12 12
13 13 13 13 13 13 13 14 14 14 14 14 14 13 13 13 13 13 13 13 13 13 13 13 13 13 12 12 12 12 12 12 12 12 12 12 12 12
13 13 13 13 13 13 13 13 13 14 14 14 14 14 14 14 14 13 13 13 12 12 12 12 12 12 12 12 12 12 12 12 12 12 12 11 11 11
12 12 12 13 13 13 13 13 13 13 14 14 14 14 14 14 13 13 13 13 13 12 12 11 11 11 11 11 11 11 11 11 11 11 11 11 11 10
12 12 12 12 13 13 13 13 13 14 14 14 14 14 14 14 14 13 13 13 12 12 12 11 11 11 11 11 11 11 11 11 11 10 10 10 10 10
11 12 12 12 12 13 13 13 13 13 14 14 14 14 14 13 13 13 13 13 12 11 11 11 11 10 10 10 10 10 10 10 10 10 10 10 9 9
11 11 12 12 12 13 13 13 13 13 13 13 13 13 13 13 13 13 13 13 12 11 11 11 11 10 10 9 9 9 9 9 9 9 9 9 9 8
11 11 12 12 12 12 13 13 13 13 13 13 13 13 13 13 13 13 13 13 12 12 12 11 11 11 10 10 9 9 9 9 9 8 8 8 8 8
11 11 11 12 12 12 13 13 13 13 13 13 13 13 13 13 12 12 12 12 12 12 12 11 11 11 11 10 9 9 8 8 8 8 8 8 8 8
11 11 11 12 12 12 12 13 13 13 13 13 13 12 12 12 12 12 12 12 12 11 11 11 11 11 11 10 10 9 8 8 7 7 7 7 7 7
10 11 11 11 12 12 12 12 12 12 13 13 13 12 12 12 12 12 12 12 12 11 11 11 11 11 10 10 10 9 8 8 8 7 7 7 7 7
10 11 11 11 12 12 12 12 12 12 12 12 12 12 12 12 12 11 11 11 11 11 11 10 10 10 10 10 9 9 8 8 8 7 7 7 7 7
10 10 11 11 11 12 12 12 12 12 12 12 12 12 12 12 11 11 11 11 11 10 10 10 10 10 9 9 9 8 8 8 7 7 7 7 6 7
10 10 10 11 11 11 11 12 12 12 12 12 12 11 11 11 11 11 10 10 10 10 9 9 9 9 8 9 8 8 8 8 8 7 7 7 7 7
10 10 10 10 11 11 11 11 11 11 11 11 11 11 11 11 11 10 10 10 10 9 9 9 9 8 8 8 8 8 8 8 8 7 7 7 7 7
10 10 10 10 10 11 11 11 11 11 11 11 11 11 11 11 10 10 10 10 9 9 9 9 9 9 8 8 8 8 8 8 8 8 7 7 7 7
10 10 10 10 10 11 11 11 11 11 11 11 11 11 10 10 10 10 10 9 9 9 9 9 9 9 9 8 8 8 8 8 8 8 8 8 7 7
10 10 10 10 10 11 10 10 10 10 10 10 10 10 10 10 10 9 9 9 9 9 9 9 9 9 8 8 8 7 7 7 8 8 8 7 7 7
Wind_Speed
7 8 7 6 6 5 5 5 6 5 5 4 2 1 2 5 10 10 10 16 16 14 13 11 10 8 7 5 3 2 1 2 2 3 3 4 5 6
4 5 5 5 5 5 5 5 4 4 4 4 4 2 2 4 8 6 7 14 14 13 11 10 9 8 6 5 3 2 1 1 2 2 3 4 4 5
3 4 5 5 5 5 5 5 4 4 4 2 2 3 3 3 4 5 8 10 10 11 10 10 9 7 6 4 3 1 0 0 1 2 2 3 4 4
2 4 4 4 5 5 5 5 4 4 4 4 2 2 3 3 3 3 5 8 10 11 10 10 9 9 8 6 5 4 3 3 3 3 3 3 4 5
3 3 4 5 5 4 5 5 4 4 3 4 3 2 2 3 3 3 5 6 10 12 12 12 13 12 11 10 9 7 6 6 6 6 6 6 6 6
4 4 4 4 4 5 5 5 4 4 4 4 4 3 3 3 4 4 5 5 6 9 12 14 16 17 16 14 12 11 10 10 10 9 9 9 9 9
4 4 4 5 5 4 4 4 5 4 4 4 4 3 3 4 4 4 6 7 6 5 8 9 12 12 13 14 13 13 14 14 14 14 14 14 13 13
4 4 3 4 5 6 7 6 5 5 5 4 3 4 4 4 4 6 7 7 4 4 7 7 9 8 11 12 14 15 15 15 16 16 15 15 15 14
3 3 3 4 4 4 5 6 6 4 4 4 4 4 5 6 7 7 7 6 5 7 8 7 7 8 10 13 15 16 16 16 16 16 15 14 14 14
4 4 4 4 5 5 3 6 7 6 3 3 4 3 4 5 6 7 9 9 8 6 6 5 5 5 8 11 13 15 16 15 15 14 13 13 12 12
4 5 5 5 7 6 5 8 8 7 11 14 13 12 14 12 10 9 9 10 7 4 3 4 5 4 4 4 10 14 15 15 14 13 12 11 9 9
4 5 8 7 7 6 4 7 8 7 7 8 8 10 10 11 11 7 7 9 7 4 3 4 5 4 4 2 4 7 10 11 12 13 13 13 11 6
4 4 4 7 7 5 3 4 7 7 6 7 7 7 7 7 7 7 7 7 6 4 4 4 4 4 4 4 2 3 5 5 6 8 11 14 15 13
4 4 4 6 6 6 5 6 8 7 6 6 7 6 7 7 7 7 11 11 9 7 7 5 4 4 4 4 3 2 1 3 4 4 6 7 9 12
4 5 5 6 6 5 6 6 6 5 6 7 7 6 6 7 6 7 9 12 13 13 11 9 5 5 5 5 5 3 2 1 3 3 3 3 3 4
3 4 6 7 6 5 4 5 5 6 6 7 6 6 5 5 5 5 6 6 7 7 12 17 14 8 5 6 5 4 3 2 1 1 1 2 5 9
3 2 2 3 3 4 4 4 5 5 6 5 6 5 5 5 4 4 4 5 5 5 5 6 14 16 10 6 5 4 3 2 1 1 1 0 1 7
4 3 3 3 4 4 4 4 4 5 4 5 6 5 5 5 4 3 4 5 6 5 5 4 4 4 4 5 5 3 2 2 1 1 1 0 1 3
4 4 4 4 4 4 3 4 4 3 4 5 5 5 5 5 4 4 4 5 5 5 4 3 3 3 2 3 1 3 2 2 1 1 2 2 2 3
4 4 3 3 3 3 3 3 3 3 4 4 5 4 4 4 4 4 4 5 5 4 3 2 2 2 2 3 4 1 2 2 1 1 2 2 2 2
3 3 3 3 3 2 2 3 3 3 4 4 4 4 4 4 4 4 5 5 4 3 4 3 2 2 1 3 3 2 2 3 3 2 0 1 3 3
3 3 2 3 3 2 2 3 3 3 3 3 4 3 3 3 5 6 5 4 3 3 5 3 2 1 0 1 2 4 3 3 4 4 4 4 3 2
2 2 2 2 2 2 1 1 2 3 3 3 4 3 3 3 3 4 4 4 4 5 5 4 3 1 1 1 1 2 4 4 3 3 5 13 15 14
Wind_Direction
203 198 195 191 187 188 182 175 173 189 210 204 199 204 141 128 156 171 174 184 184 186 185 185 184 184 187 186 191 212 264 269 263 263 277 290 299 306
183 187 189 178 172 177 180 177 175 172 189 192 191 180 161 152 165 171 157 175 180 180 181 181 181 182 180 176 183 205 247 269 277 283 292 297 303 308
152 162 174 168 165 166 163 164 174 172 180 181 171 158 146 156 153 161 151 153 162 170 170 167 165 162 159 156 148 144 103 6 348 345 340 335 335 334
109 133 137 141 144 149 155 163 165 167 165 165 153 148 154 160 152 158 152 144 139 144 144 140 135 128 120 111 100 89 79 69 57 43 31 16 3 0
81 102 123 133 139 145 150 150 152 160 150 145 149 143 138 147 134 126 119 116 120 124 119 114 111 104 97 89 83 79 76 74 71 65 59 52 46 42
73 84 98 120 135 144 147 150 149 147 139 139 143 148 145 147 140 134 122 111 115 118 111 107 100 91 83 78 76 76 77 78 77 74 71 68 65 62
61 66 87 101 113 124 132 141 148 147 143 149 151 148 150 145 157 149 132 116 104 114 111 106 98 85 72 68 72 77 80 80 80 79 78 76 75 73
63 54 80 103 111 112 109 112 130 151 162 160 159 161 164 159 148 142 137 134 122 123 110 98 90 80 69 69 76 82 83 83 83 82 81 80 78 76
65 62 55 69 80 96 116 111 90 92 138 154 159 169 161 163 153 150 150 137 125 133 114 100 92 86 76 73 80 83 84 83 82 81 81 82 81 79
66 58 48 58 54 51 107 107 82 55 69 118 129 132 125 128 138 142 131 114 105 110 113 108 106 96 86 76 80 86 87 87 84 81 79 81 86 89
77 73 57 60 44 52 100 113 103 82 73 87 92 94 91 96 109 117 124 127 124 118 106 109 128 116 102 91 87 90 92 90 86 81 75 72 82 99
59 71 59 51 42 47 107 125 122 118 115 104 93 89 85 87 101 113 130 134 132 126 131 114 149 140 120 119 130 118 103 95 90 82 73 64 61 85
54 57 49 43 43 39 73 120 130 130 121 110 97 87 80 76 75 78 94 126 128 120 147 129 152 144 124 133 132 141 141 138 121 97 82 73 68 67
51 50 50 45 52 62 69 100 115 114 108 100 93 86 83 79 76 75 82 85 90 106 125 127 135 145 129 130 140 145 128 133 134 136 129 98 81 74
54 59 62 61 62 69 69 85 101 106 105 103 98 92 92 93 84 77 73 73 68 72 79 83 104 120 123 131 138 147 138 54 71 105 131 139 131 91
53 62 60 64 73 78 74 77 84 99 108 109 103 100 99 98 100 104 101 92 75 55 54 66 77 91 97 105 118 128 133 146 65 59 84 104 115 106
10 58 65 64 68 71 74 80 89 97 105 110 111 112 105 98 99 103 109 105 104 102 78 60 75 79 78 96 111 118 123 122 140 119 57 342 172 134
44 72 72 74 78 85 90 87 88 102 113 116 118 121 120 116 109 99 103 112 119 122 121 119 104 80 65 43 53 119 127 148 175 210 230 251 251 172
58 66 65 67 72 76 85 92 94 102 110 114 120 125 126 125 123 120 115 114 121 128 139 150 147 135 154 176 324 50 115 142 185 242 235 209 223 208
59 67 67 69 78 88 93 101 102 100 105 116 123 125 127 129 132 133 125 126 133 133 128 106 91 97 133 165 162 169 101 116 114 312 294 282 262 211
67 62 59 64 70 77 87 102 105 105 107 111 116 123 129 132 134 126 121 127 135 150 149 147 154 171 283 81 106 147 190 161 154 159 115 8 332 315
89 81 65 62 64 69 75 94 111 114 117 115 121 125 129 134 136 135 143 158 178 146 131 143 165 161 120 167 192 176 184 211 220 219 218 206 183 231
128 113 98 76 64 61 57 101 127 137 136 130 128 129 126 126 134 143 151 154 141 135 137 155 178 210 220 188 183 171 177 187 201 227 258 242 234 241
Height
1502 1505 1508 1511 1514 1517 1521 1524 1528 1530 1532 1535 1538 1540 1542 1545 1547 1550 1552 1555 1557 1560 1562 1564 1565 1567 1568 1569 1569 1570 1570 1570 1570 1570 1570 1569 1569 1568
1499 1501 1504 1507 1509 1513 1516 1519 1522 1526 1528 1531 1533 1536 1539 1541 1544 1546 1549 1551 1554 1556 1559 1561 1563 1564 1566 1567 1567 1568 1568 1568 1568 1567 1567 1566 1566 1565
1496 1498 1501 1503 1506 1509 1512 1515 1518 1522 1525 1527 1530 1532 1535 1537 1540 1543 1545 1548 1551 1553 1556 1558 1560 1562 1563 1564 1565 1565 1565 1565 1565 1564 1564 1563 1563 1562
1495 1497 1499 1501 1504 1507 1509 1512 1515 1518 1522 1524 1526 1529 1532 1534 1537 1539 1542 1545 1548 1550 1553 1555 1557 1559 1560 1561 1562 1562 1562 1562 1562 1561 1561 1560 1560 1559
1495 1497 1498 1500 1503 1505 1508 1510 1513 1516 1519 1522 1524 1527 1530 1532 1535 1538 1540 1543 1545 1548 1550 1553 1555 1556 1558 1559 1559 1560 1560 1559 1559 1558 1558 1558 1557 1556
1495 1496 1498 1500 1502 1504 1507 1509 1512 1514 1517 1520 1523 1525 1528 1530 1533 1536 1538 1541 1544 1546 1549 1551 1553 1554 1556 1557 1557 1557 1557 1557 1556 1556 1556 1555 1554 1554
1495 1496 1498 1499 1501 1503 1506 1508 1511 1513 1516 1518 1521 1524 1526 1528 1531 1534 1537 1540 1543 1546 1548 1550 1551 1553 1554 1555 1555 1556 1556 1555 1555 1554 1554 1553 1553 1552
1495 1496 1497 1499 1501 1503 1506 1508 1510 1513 1515 1517 1520 1522 1525 1527 1530 1533 1536 1539 1542 1546 1547 1549 1551 1552 1553 1554 1554 1555 1555 1554 1554 1553 1553 1552 1551 1551
1495 1496 1498 1499 1500 1502 1505 1507 1510 1512 1515 1517 1519 1522 1524 1526 1529 1532 1535 1538 1541 1544 1547 1548 1550 1551 1553 1553 1554 1554 1554 1554 1554 1553 1552 1552 1551 1550
1496 1496 1497 1499 1500 1502 1505 1507 1509 1512 1514 1517 1519 1521 1524 1526 1528 1531 1534 1538 1541 1544 1547 1548 1550 1551 1553 1554 1554 1554 1554 1554 1554 1553 1552 1552 1551 1550
1496 1497 1498 1499 1501 1503 1505 1507 1510 1513 1515 1518 1520 1522 1524 1526 1528 1531 1534 1537 1540 1544 1547 1548 1550 1551 1553 1554 1554 1555 1555 1554 1554 1553 1552 1551 1551 1550
1497 1498 1499 1500 1502 1504 1506 1508 1511 1514 1516 1519 1521 1523 1525 1527 1530 1532 1534 1537 1539 1543 1546 1547 1549 1551 1553 1554 1554 1555 1555 1555 1554 1553 1553 1552 1551 1549
1498 1499 1500 1501 1503 1505 1508 1510 1513 1515 1518 1520 1523 1525 1527 1529 1531 1533 1536 1538 1540 1542 1545 1547 1549 1550 1552 1553 1554 1554 1555 1555 1554 1553 1553 1552 1551 1550
1499 1500 1502 1503 1505 1507 1509 1512 1515 1517 1520 1522 1524 1527 1529 1531 1533 1535 1537 1539 1541 1543 1545 1546 1548 1549 1550 1552 1553 1554 1554 1554 1553 1553 1552 1551 1550 1549
1501 1502 1504 1505 1507 1509 1512 1514 1517 1520 1522 1524 1526 1528 1530 1532 1534 1536 1538 1540 1541 1543 1544 1546 1547 1548 1550 1551 1552 1552 1553 1553 1553 1553 1552 1551 1550 1549
1503 1505 1506 1508 1510 1512 1514 1517 1519 1522 1524 1526 1528 1530 1532 1534 1535 1537 1539 1540 1542 1543 1544 1546 1547 1548 1549 1550 1551 1551 1552 1552 1552 1552 1551 1551 1550 1548
1506 1507 1509 1511 1512 1514 1516 1519 1521 1524 1526 1528 1530 1532 1533 1535 1537 1538 1539 1541 1542 1543 1544 1546 1547 1548 1549 1550 1550 1550 1551 1551 1551 1551 1550 1550 1549 1548
1509 1510 1511 1513 1515 1517 1519 1521 1523 1525 1528 1530 1531 1533 1535 1536 1538 1539 1540 1541 1542 1543 1544 1545 1546 1548 1549 1549 1550 1550 1549 1550 1549 1549 1549 1549 1548 1547
1512 1513 1514 1515 1517 1519 1521 1523 1525 1527 1529 1531 1532 1534 1535 1537 1538 1539 1541 1542 1542 1543 1544 1545 1546 1547 1547 1548 1549 1549 1549 1548 1548 1548 1548 1548 1547 1546
1515 1516 1517 1518 1519 1521 1522 1524 1526 1528 1530 1531 1533 1534 1536 1537 1538 1539 1540 1541 1542 1543 1544 1544 1545 1546 1546 1547 1547 1548 1548 1547 1547 1547 1546 1546 1546 1546
1517 1518 1519 1520 1521 1522 1524 1525 1527 1528 1530 1531 1533 1534 1535 1537 1538 1539 1540 1541 1541 1542 1542 1543 1544 1545 1545 1546 1546 1546 1546 1546 1545 1545 1545 1545 1544 1543
1518 1519 1520 1521 1522 1523 1524 1525 1527 1528 1530 1531 1532 1533 1535 1536 1537 1538 1538 1539 1540 1541 1541 1542 1542 1542 1543 1543 1543 1543 1544 1544 1543 1543 1543 1543 1542 1541
1518 1519 1520 1521 1522 1523 1524 1525 1527 1528 1529 1530 1531 1532 1533 1534 1535 1536 1537 1538 1538 1539 1539 1539 1540 1540 1540 1541 1542 1542 1541 1541 1541 1541 1541 1541 1540 1539